QPF
0.00 0.00 0.00 0.00 0.00 0.00 0.00 0.00 0.00 0.00 0.00 0.00 0.00 0.00 0.00 0.00 0.00 0.00 0.00 0.00 0.00 0.00 0.00 0.00 0.00 0.00 0.00 0.00 0.00 0.00 0.00 0.00 0.00 0.00 0.00 0.00 0.00 0.00
0.00 0.00 0.00 0.00 0.00 0.00 0.00 0.00 0.00 0.00 0.00 0.00 0.00 0.00 0.00 0.00 0.00 0.00 0.00 0.00 0.00 0.00 0.00 0.00 0.00 0.00 0.00 0.00 0.00 0.00 0.00 0.00 0.00 0.00 0.00 0.00 0.00 0.00
0.00 0.00 0.00 0.00 0.00 0.00 0.00 0.00 0.00 0.00 0.00 0.00 0.00 0.00 0.00 0.00 0.00 0.00 0.00 0.00 0.00 0.00 0.00 0.00 0.00 0.00 0.00 0.00 0.00 0.00 0.00 0.00 0.00 0.00 0.00 0.00 0.00 0.00
0.00 0.00 0.00 0.00 0.00 0.00 0.00 0.00 0.00 0.00 0.00 0.00 0.00 0.00 0.00 0.00 0.00 0.00 0.00 0.00 0.00 0.00 0.00 0.00 0.00 0.00 0.00 0.00 0.00 0.00 0.00 0.00 0.00 0.00 0.00 0.00 0.00 0.00
0.00 0.00 0.00 0.00 0.00 0.00 0.00 0.00 0.00 0.00 0.00 0.00 0.00 0.00 0.00 0.00 0.00 0.00 0.00 0.00 0.00 0.00 0.00 0.00 0.00 0.00 0.00 0.00 0.00 0.00 0.00 0.00 0.00 0.00 0.01 0.00 0.00 0.00
0.00 0.00 0.00 0.00 0.00 0.00 0.00 0.00 0.00 0.00 0.00 0.00 0.00 0.00 0.00 0.00 0.00 0.00 0.00 0.00 0.00 0.00 0.00 0.00 0.00 0.00 0.00 0.00 0.00 0.00 0.00 0.00 0.00 0.00 0.00 0.01 0.01 0.00
0.00 0.00 0.00 0.00 0.00 0.00 0.00 0.00 0.00 0.00 0.00 0.00 0.00 0.00 0.00 0.00 0.00 0.00 0.00 0.00 0.00 0.00 0.00 0.00 0.00 0.00 0.00 0.00 0.00 0.00 0.00 0.00 0.00 0.00 0.01 0.01 0.01 0.01
0.00 0.00 0.00 0.00 0.00 0.00 0.00 0.01 0.01 0.00 0.00 0.01 0.01 0.01 0.00 0.00 0.00 0.00 0.00 0.00 0.00 0.00 0.00 0.00 0.00 0.00 0.00 0.00 0.00 0.00 0.00 0.00 0.00 0.00 0.00 0.00 0.00 0.01
0.00 0.00 0.00 0.00 0.00 0.00 0.00 0.00 0.00 0.00 0.00 0.00 0.00 0.00 0.00 0.00 0.00 0.00 0.00 0.00 0.00 0.00 0.00 0.00 0.00 0.00 0.00 0.00 0.00 0.00 0.00 0.00 0.00 0.00 0.00 0.00 0.00 0.00
0.00 0.00 0.00 0.00 0.00 0.00 0.00 0.00 0.00 0.00 0.00 0.00 0.00 0.00 0.00 0.00 0.00 0.00 0.00 0.01 0.00 0.00 0.00 0.01 0.00 0.00 0.00 0.00 0.00 0.00 0.00 0.00 0.00 0.00 0.00 0.00 0.00 0.00
0.00 0.00 0.00 0.00 0.00 0.00 0.01 0.00 0.00 0.00 0.00 0.01 0.01 0.02 0.02 0.03 0.04 0.02 0.01 0.00 0.00 0.00 0.00 0.01 0.00 0.00 0.00 0.00 0.00 0.00 0.00 0.00 0.00 0.00 0.00 0.00 0.00 0.00
0.00 0.00 0.00 0.00 0.00 0.01 0.01 0.01 0.01 0.00 0.00 0.00 0.00 0.00 0.00 0.00 0.00 0.01 0.02 0.02 0.01 0.01 0.00 0.00 0.00 0.00 0.00 0.00 0.00 0.00 0.00 0.00 0.00 0.01 0.00 0.00 0.00 0.00
0.00 0.00 0.00 0.00 0.01 0.00 0.01 0.02 0.03 0.02 0.01 0.01 0.01 0.00 0.00 0.00 0.00 0.00 0.01 0.01 0.01 0.00 0.00 0.00 0.01 0.01 0.01 0.00 0.00 0.00 0.00 0.00 0.00 0.00 0.00 0.00 0.00 0.00
0.00 0.00 0.00 0.00 0.01 0.01 0.02 0.03 0.03 0.02 0.00 0.00 0.00 0.00 0.00 0.00 0.00 0.00 0.00 0.00 0.00 0.00 0.00 0.00 0.01 0.01 0.01 0.01 0.00 0.00 0.00 0.00 0.00 0.00 0.00 0.00 0.00 0.00
0.00 0.00 0.00 0.01 0.01 0.02 0.01 0.00 0.00 0.00 0.00 0.00 0.00 0.00 0.00 0.00 0.00 0.00 0.00 0.00 0.00 0.00 0.00 0.00 0.01 0.01 0.01 0.01 0.01 0.00 0.00 0.00 0.00 0.00 0.00 0.00 0.00 0.00
0.00 0.00 0.01 0.01 0.00 0.00 0.00 0.00 0.00 0.00 0.00 0.00 0.00 0.00 0.00 0.00 0.00 0.00 0.01 0.01 0.01 0.00 0.00 0.00 0.00 0.01 0.01 0.01 0.01 0.00 0.00 0.00 0.00 0.00 0.00 0.00 0.00 0.00
0.01 0.00 0.00 0.00 0.00 0.00 0.00 0.00 0.00 0.00 0.00 0.00 0.00 0.00 0.00 0.01 0.01 0.01 0.01 0.01 0.01 0.00 0.00 0.00 0.00 0.00 0.00 0.00 0.00 0.00 0.00 0.00 0.00 0.00 0.00 0.00 0.00 0.00
0.00 0.00 0.00 0.00 0.00 0.00 0.00 0.00 0.00 0.00 0.00 0.01 0.01 0.01 0.01 0.00 0.01 0.00 0.01 0.01 0.01 0.00 0.00 0.00 0.00 0.00 0.00 0.00 0.00 0.00 0.00 0.00 0.00 0.00 0.00 0.00 0.00 0.00
0.00 0.00 0.00 0.00 0.00 0.00 0.00 0.00 0.00 0.00 0.00 0.00 0.01 0.00 0.01 0.01 0.01 0.01 0.01 0.02 0.01 0.01 0.00 0.00 0.01 0.01 0.01 0.00 0.00 0.00 0.00 0.00 0.00 0.00 0.00 0.00 0.00 0.00
0.00 0.00 0.00 0.00 0.00 0.00 0.00 0.00 0.00 0.00 0.01 0.01 0.01 0.01 0.01 0.01 0.01 0.01 0.01 0.02 0.01 0.01 0.01 0.00 0.01 0.01 0.01 0.00 0.00 0.00 0.00 0.00 0.00 0.00 0.00 0.00 0.00 0.00
0.00 0.00 0.00 0.00 0.00 0.00 0.00 0.00 0.00 0.01 0.01 0.01 0.01 0.02 0.01 0.02 0.01 0.01 0.01 0.02 0.02 0.01 0.01 0.01 0.00 0.01 0.01 0.01 0.00 0.00 0.00 0.00 0.00 0.00 0.00 0.00 0.00 0.00
0.00 0.00 0.00 0.00 0.00 0.00 0.00 0.00 0.00 0.00 0.00 0.01 0.02 0.02 0.02 0.01 0.01 0.01 0.01 0.01 0.01 0.01 0.00 0.00 0.01 0.01 0.01 0.01 0.00 0.00 0.00 0.00 0.00 0.00 0.00 0.00 0.00 0.00
0.00 0.00 0.00 0.00 0.00 0.00 0.00 0.00 0.00 0.00 0.00 0.01 0.01 0.01 0.01 0.01 0.01 0.01 0.01 0.01 0.01 0.00 0.00 0.00 0.01 0.01 0.00 0.00 0.00 0.00 0.00 0.00 0.00 0.00 0.00 0.00 0.00 0.00
MSLP
1022.38 1022.53 1022.58 1022.93 1023.08 1023.17 1023.29 1023.19 1022.99 1022.53 1021.99 1022.07 1022.59 1022.94 1023.33 1023.62 1023.70 1023.94 1023.79 1023.55 1023.75 1023.85 1023.80 1023.67 1023.49 1023.14 1023.12 1022.87 1022.78 1022.64 1022.43 1022.26 1022.11 1022.07 1022.03 1021.97 1021.97 1021.98
1022.75 1022.76 1022.98 1023.23 1023.44 1023.41 1023.47 1023.50 1023.41 1023.31 1022.63 1022.60 1022.65 1023.15 1023.28 1023.59 1023.65 1023.75 1023.46 1023.42 1023.25 1023.27 1023.29 1023.22 1023.13 1022.84 1022.73 1022.61 1022.41 1022.33 1022.15 1022.18 1021.93 1021.96 1022.04 1021.93 1021.75 1021.71
1022.92 1023.06 1023.33 1023.41 1023.42 1023.43 1023.68 1023.74 1023.74 1023.70 1023.40 1022.99 1023.09 1023.22 1023.60 1023.55 1023.17 1023.28 1023.01 1022.65 1022.42 1022.52 1022.72 1022.68 1022.52 1022.37 1022.28 1022.11 1022.06 1022.03 1021.92 1021.78 1021.66 1021.75 1021.75 1021.67 1021.50 1021.33
1023.17 1023.37 1023.38 1023.58 1023.47 1023.43 1023.63 1023.69 1023.76 1023.54 1023.79 1023.41 1023.30 1023.11 1023.14 1023.28 1023.29 1023.07 1022.79 1022.49 1022.14 1021.87 1021.84 1022.03 1021.96 1021.84 1021.75 1021.65 1021.64 1021.60 1021.47 1021.36 1021.44 1021.50 1021.43 1021.34 1021.06 1020.78
1023.33 1023.32 1023.35 1023.21 1023.06 1023.02 1023.36 1023.47 1023.43 1023.42 1023.61 1023.54 1023.16 1023.14 1022.88 1022.99 1023.04 1022.67 1022.38 1021.84 1021.50 1021.53 1021.53 1021.43 1021.28 1021.24 1021.19 1021.13 1021.03 1020.93 1020.96 1021.03 1021.17 1021.20 1021.14 1021.15 1020.93 1020.70
1023.19 1023.23 1023.03 1022.89 1022.90 1022.98 1022.82 1022.82 1022.97 1022.99 1022.93 1023.01 1023.41 1023.38 1022.98 1022.47 1022.53 1022.48 1022.20 1021.68 1021.56 1021.35 1020.95 1020.64 1020.65 1020.65 1020.65 1020.57 1020.48 1020.41 1020.49 1020.55 1020.59 1020.62 1020.62 1020.68 1020.67 1020.60
1022.84 1022.87 1022.82 1022.88 1023.08 1023.11 1023.06 1022.77 1022.77 1022.81 1022.85 1023.08 1023.16 1022.83 1022.36 1022.11 1022.40 1022.04 1021.65 1021.18 1021.15 1021.03 1020.55 1019.87 1019.63 1019.59 1019.56 1019.78 1019.90 1019.91 1020.09 1020.15 1020.19 1020.19 1020.16 1020.14 1020.17 1020.17
1022.55 1022.71 1022.64 1022.62 1022.70 1022.81 1022.63 1022.44 1022.44 1022.68 1022.58 1022.41 1022.20 1022.05 1021.88 1021.85 1021.85 1021.64 1021.29 1020.76 1020.52 1020.01 1019.98 1019.52 1019.46 1019.24 1019.09 1018.93 1019.06 1019.48 1019.71 1019.77 1019.80 1019.78 1019.71 1019.69 1019.67 1019.69
1023.00 1022.99 1022.79 1022.49 1022.52 1022.35 1022.13 1022.09 1022.04 1021.96 1021.89 1021.81 1021.57 1021.27 1021.14 1021.09 1021.02 1020.78 1020.69 1020.42 1019.97 1019.72 1019.80 1019.56 1019.54 1019.14 1018.82 1018.65 1018.75 1019.07 1019.21 1019.24 1019.18 1019.17 1019.13 1019.12 1019.12 1019.14
1023.09 1022.91 1022.66 1022.40 1022.23 1022.20 1022.01 1021.71 1021.46 1021.24 1021.33 1021.47 1021.15 1020.76 1020.37 1020.14 1020.07 1019.93 1019.61 1019.58 1019.35 1019.67 1019.98 1019.36 1019.17 1018.66 1018.47 1018.41 1018.24 1018.34 1018.57 1018.66 1018.60 1018.54 1018.52 1018.52 1018.57 1018.64
1022.68 1022.55 1022.40 1022.19 1021.93 1021.85 1021.85 1021.48 1021.24 1020.99 1020.73 1020.37 1020.12 1019.91 1019.72 1019.72 1019.67 1019.59 1019.15 1019.25 1019.21 1019.33 1019.15 1018.93 1018.28 1018.03 1017.71 1017.48 1017.49 1017.44 1017.62 1017.76 1017.91 1017.88 1017.81 1017.87 1017.98 1018.16
1022.59 1022.46 1022.47 1022.25 1021.90 1021.59 1021.46 1021.20 1020.75 1020.23 1019.81 1019.45 1019.35 1019.46 1019.57 1019.38 1019.06 1018.86 1018.71 1018.65 1018.48 1018.24 1018.16 1018.16 1017.93 1018.09 1017.60 1017.12 1016.84 1016.89 1017.06 1017.17 1017.21 1017.23 1017.26 1017.26 1017.45 1017.48
1022.57 1022.26 1022.05 1021.90 1021.55 1021.16 1020.92 1020.61 1020.19 1019.76 1019.41 1019.27 1019.38 1019.17 1018.94 1018.55 1018.25 1018.03 1017.94 1017.90 1017.79 1017.56 1017.65 1017.87 1017.80 1017.85 1017.68 1017.36 1017.16 1017.23 1017.09 1016.76 1016.69 1016.66 1016.91 1017.02 1017.22 1017.37
1022.38 1022.10 1021.71 1021.36 1021.02 1020.61 1020.27 1019.99 1019.72 1019.50 1019.44 1019.27 1018.79 1018.45 1018.06 1017.81 1017.52 1017.29 1017.52 1017.67 1017.60 1017.50 1017.60 1017.58 1017.67 1017.55 1017.39 1017.17 1017.00 1017.07 1016.80 1016.65 1016.63 1016.55 1016.40 1016.47 1016.86 1017.06
1022.08 1021.61 1021.33 1021.01 1020.65 1020.45 1020.08 1019.77 1019.56 1019.23 1018.80 1018.45 1018.11 1017.76 1017.57 1017.54 1017.60 1017.75 1017.74 1017.65 1017.55 1017.40 1017.31 1017.30 1017.28 1017.17 1017.08 1016.84 1016.70 1016.70 1016.83 1016.41 1016.15 1016.34 1016.33 1016.15 1016.08 1015.95
1021.69 1021.55 1021.37 1020.95 1020.49 1020.09 1019.78 1019.51 1019.33 1019.11 1018.89 1018.58 1018.25 1017.99 1017.96 1017.85 1017.70 1017.59 1017.58 1017.62 1017.27 1016.82 1016.57 1016.54 1016.48 1016.48 1016.43 1016.30 1016.28 1016.23 1016.30 1016.45 1015.86 1015.82 1015.79 1015.66 1015.51 1015.20
1021.55 1021.17 1020.80 1020.39 1020.04 1019.82 1019.63 1019.48 1019.38 1019.16 1018.91 1018.51 1018.17 1017.90 1017.72 1017.54 1017.33 1017.25 1017.13 1016.94 1016.70 1016.29 1015.99 1015.80 1015.71 1015.61 1015.61 1015.68 1015.60 1015.59 1015.56 1015.60 1015.69 1015.66 1015.69 1015.45 1015.18 1015.06
1021.54 1021.17 1020.87 1020.64 1020.39 1020.10 1019.78 1019.44 1019.20 1018.90 1018.60 1018.31 1017.87 1017.54 1017.26 1016.99 1016.73 1016.52 1016.52 1016.34 1016.14 1015.85 1015.64 1015.60 1015.45 1015.08 1014.98 1014.83 1014.93 1014.91 1015.02 1015.08 1015.06 1015.07 1015.11 1015.07 1014.86 1014.52
1021.78 1021.65 1021.34 1020.91 1020.49 1020.06 1019.64 1019.22 1018.80 1018.52 1018.28 1017.97 1017.60 1017.20 1016.93 1016.62 1016.36 1016.09 1015.95 1015.88 1015.67 1015.40 1015.41 1015.49 1015.19 1014.78 1014.40 1014.05 1013.98 1014.06 1014.25 1014.30 1014.40 1014.39 1014.34 1014.31 1014.24 1014.14
1021.67 1021.43 1021.02 1020.57 1020.19 1019.79 1019.37 1018.91 1018.43 1017.99 1017.64 1017.29 1016.98 1016.68 1016.37 1016.12 1015.82 1015.56 1015.39 1015.32 1015.11 1014.94 1014.98 1014.98 1014.69 1014.27 1013.95 1013.54 1013.42 1013.37 1013.61 1013.75 1013.73 1013.64 1013.66 1013.66 1013.58 1013.46
1021.58 1021.32 1021.04 1020.61 1020.09 1019.65 1019.13 1018.62 1018.14 1017.65 1017.17 1016.77 1016.43 1016.13 1015.82 1015.57 1015.29 1015.11 1014.95 1014.84 1014.68 1014.56 1014.34 1014.07 1013.67 1013.48 1013.46 1013.38 1013.23 1013.02 1012.95 1013.02 1013.23 1013.11 1013.15 1013.23 1013.16 1012.89
1021.59 1021.22 1020.78 1020.28 1019.74 1019.23 1018.63 1018.14 1017.67 1017.19 1016.85 1016.41 1016.01 1015.65 1015.30 1014.98 1014.76 1014.61 1014.47 1014.28 1014.07 1013.97 1013.83 1013.36 1013.07 1013.02 1012.93 1012.77 1012.43 1012.30 1012.22 1011.95 1012.03 1012.26 1012.56 1012.67 1012.61 1012.15
1021.36 1020.91 1020.42 1019.91 1019.39 1018.83 1018.27 1017.70 1017.21 1016.80 1016.56 1016.11 1015.67 1015.31 1014.98 1014.59 1014.29 1014.19 1014.05 1013.89 1013.69 1013.49 1013.19 1012.93 1012.58 1012.43 1012.33 1012.28 1012.21 1011.98 1011.82 1011.68 1011.61 1011.56 1011.51 1011.65 1011.73 1011.60
Thickness
5563 5559 5555 5547 5542 5537 5531 5526 5522 5521 5521 5515 5507 5493 5483 5475 5470 5465 5464 5464 5460 5457 5455 5454 5454 5453 5450 5451 5450 5450 5452 5457 5466 5475 5483 5491 5501 5509
5549 5546 5539 5531 5525 5521 5515 5508 5502 5495 5496 5488 5482 5472 5461 5451 5448 5449 5450 5451 5452 5451 5449 5448 5447 5447 5445 5442 5442 5442 5443 5441 5445 5448 5455 5467 5479 5489
5536 5529 5521 5515 5509 5503 5494 5486 5478 5471 5465 5465 5454 5445 5438 5435 5438 5438 5442 5445 5448 5446 5444 5444 5443 5442 5439 5438 5436 5434 5434 5435 5436 5435 5436 5442 5454 5465
5518 5510 5504 5495 5488 5481 5472 5463 5454 5448 5439 5436 5431 5427 5425 5422 5425 5429 5431 5434 5439 5441 5441 5438 5438 5437 5435 5432 5430 5428 5427 5428 5427 5427 5428 5433 5437 5446
5498 5491 5482 5476 5469 5461 5449 5440 5432 5426 5418 5416 5417 5413 5417 5416 5417 5420 5423 5430 5433 5433 5433 5434 5434 5432 5429 5427 5425 5424 5422 5420 5419 5419 5421 5423 5427 5431
5480 5470 5462 5454 5446 5435 5429 5423 5416 5411 5409 5407 5401 5402 5409 5413 5411 5411 5415 5421 5422 5424 5427 5429 5428 5425 5422 5420 5419 5419 5417 5415 5414 5413 5414 5415 5418 5422
5460 5449 5439 5428 5418 5412 5406 5404 5399 5397 5396 5393 5396 5400 5405 5405 5402 5407 5411 5415 5414 5416 5419 5423 5424 5421 5419 5416 5413 5413 5411 5410 5409 5408 5408 5409 5410 5412
5438 5423 5413 5407 5400 5395 5394 5392 5390 5387 5389 5393 5396 5394 5397 5396 5398 5400 5402 5406 5407 5412 5412 5415 5413 5412 5411 5411 5409 5405 5403 5402 5402 5402 5403 5403 5403 5404
5407 5398 5393 5390 5388 5387 5386 5385 5385 5386 5386 5387 5390 5392 5393 5393 5393 5394 5394 5397 5400 5402 5402 5401 5399 5401 5402 5402 5400 5396 5395 5395 5396 5396 5397 5397 5398 5399
5391 5386 5384 5382 5380 5379 5379 5380 5381 5382 5380 5377 5381 5386 5388 5389 5388 5389 5391 5392 5394 5390 5388 5390 5389 5392 5392 5392 5392 5391 5389 5389 5390 5390 5391 5391 5392 5392
5385 5380 5378 5375 5374 5372 5371 5373 5374 5374 5374 5376 5377 5379 5380 5379 5379 5379 5382 5380 5379 5380 5381 5381 5384 5384 5386 5387 5386 5386 5385 5384 5384 5385 5386 5386 5385 5385
5380 5375 5370 5368 5366 5366 5365 5365 5369 5371 5372 5374 5373 5370 5368 5370 5371 5372 5373 5372 5374 5376 5375 5373 5374 5372 5374 5377 5379 5379 5379 5379 5380 5380 5379 5378 5377 5378
5373 5370 5366 5362 5361 5361 5361 5361 5363 5364 5366 5365 5361 5362 5363 5364 5364 5365 5365 5366 5367 5369 5366 5362 5362 5361 5362 5364 5365 5365 5368 5372 5373 5372 5369 5366 5363 5363
5369 5365 5363 5360 5358 5358 5357 5356 5356 5356 5354 5354 5356 5356 5357 5358 5358 5357 5355 5354 5354 5355 5353 5351 5351 5352 5352 5356 5357 5358 5361 5362 5361 5359 5356 5350 5343 5341
5365 5363 5361 5358 5356 5353 5351 5350 5348 5348 5349 5350 5350 5351 5349 5347 5344 5342 5341 5341 5342 5342 5342 5342 5343 5343 5345 5348 5351 5353 5351 5354 5353 5346 5339 5332 5328 5331
5360 5355 5352 5351 5350 5349 5347 5345 5342 5339 5337 5336 5336 5335 5332 5330 5330 5329 5328 5327 5330 5333 5335 5336 5337 5338 5339 5344 5347 5348 5348 5344 5346 5340 5332 5325 5323 5327
5357 5355 5352 5351 5347 5343 5339 5335 5331 5327 5325 5324 5323 5322 5320 5319 5318 5317 5317 5318 5320 5324 5327 5330 5332 5334 5337 5341 5344 5346 5346 5344 5341 5336 5329 5326 5327 5330
5353 5350 5346 5342 5337 5332 5327 5324 5320 5318 5315 5312 5312 5310 5309 5309 5309 5308 5307 5308 5310 5314 5318 5320 5324 5330 5335 5341 5343 5344 5343 5342 5340 5337 5334 5331 5332 5337
5346 5340 5335 5332 5329 5326 5324 5321 5319 5315 5310 5307 5305 5304 5301 5300 5300 5302 5301 5299 5301 5306 5308 5310 5316 5324 5333 5340 5344 5344 5343 5342 5341 5340 5339 5337 5336 5338
5344 5339 5336 5333 5330 5327 5324 5321 5319 5315 5310 5306 5303 5300 5296 5295 5296 5297 5297 5295 5297 5301 5302 5306 5314 5323 5332 5339 5343 5345 5343 5342 5342 5342 5342 5341 5340 5342
5342 5337 5334 5331 5329 5326 5324 5321 5316 5313 5310 5306 5302 5299 5296 5294 5294 5294 5294 5295 5296 5298 5302 5309 5319 5326 5332 5336 5339 5342 5343 5342 5341 5343 5342 5341 5341 5343
5339 5336 5333 5332 5330 5328 5326 5322 5319 5315 5311 5307 5304 5300 5298 5297 5296 5295 5295 5296 5298 5300 5305 5315 5323 5328 5333 5337 5342 5344 5346 5348 5347 5345 5342 5341 5342 5344
5338 5336 5334 5333 5331 5329 5327 5325 5322 5318 5313 5310 5308 5305 5302 5300 5299 5298 5298 5299 5302 5306 5313 5319 5326 5331 5335 5337 5339 5341 5343 5345 5345 5346 5346 5342 5341 5342